Baker, OR

12:44 PM PDT on October 22, 2017 (GMT -0700)
Baker City Municipal

Weather History for KBKE - February, 2013

Change the Weather History Date:

Sunday, February 10, 2013

  Actual Average Record
Temperature  
Mean Temperature 31 °F 28 °F  
Max Temperature 40 °F 38 °F 61 °F (1961)
Min Temperature 22 °F 18 °F -6 °F (1982)
Degree Days  
Heating Degree Days 34 37  
Month to date heating degree days 343 377  
Since 1 July heating degree days 4796 4900  
Cooling Degree Days 0 0  
Month to date cooling degree days 0 0  
Year to date cooling degree days 0 0  
Moisture  
Dew Point 24 °F    
Average Humidity 70    
Maximum Humidity 85    
Minimum Humidity 54    
Precipitation  
Precipitation 0.00 in 0.02 in 0.09 in (2007)
Month to date precipitation 0.19 0.21  
Year to date precipitation 1.03 1.01  
Sea Level Pressure  
Sea Level Pressure 30.20 in    
Wind  
Wind Speed 10 mph (WNW)    
Max Wind Speed 22 mph    
Max Gust Speed 28 mph    
Visibility 10 miles    
Events      
T = Trace of Precipitation, MM = Missing Value Source: NWS Daily Summary

Daily Weather History Graph

Daily Weather History Graph

Search for Another Location

Airport or City:

Trip Planner

Search our weather history database for the weather conditions in past years. The results will help you decide how hot, cold, wet, or windy it might be!

Date:

Astronomy

Feb. 10, 2013 Rise Set
Actual Time 6:58 AM PST 5:12 PM PST
Civil Twilight 6:28 AM PST 5:43 PM PST
Nautical Twilight 5:53 AM PST 6:17 PM PST
Astronomical Twilight 5:19 AM PST 6:51 PM PST
Moon 6:47 AM PST (2/10) 6:13 PM PST (2/10)
Length of Visible Light 11h 15m
Length of Day
10h 14m
New Moon, 0% of the Moon is Illuminated
Feb 10
New Moon
Feb 17
First Quarter
Feb 25
Full
Mar 4
Last Quarter
Mar 11
New

Hourly Weather History & Observations

Time (PST) Temp. Windchill Dew Point Humidity Pressure Visibility Wind Dir Wind Speed Gust Speed Precip Events Conditions
12:53 AM 30.0 °F 22.4 °F 25.0 °F 82% 30.15 in 10.0 mi NW 8.1 mph - N/A   Scattered Clouds
1:53 AM 30.0 °F 20.5 °F 25.0 °F 82% 30.15 in 10.0 mi WNW 11.5 mph - N/A   Clear
2:53 AM 30.0 °F 19.5 °F 24.1 °F 79% 30.15 in 10.0 mi NW 13.8 mph - N/A   Clear
3:53 AM 28.9 °F 19.2 °F 24.1 °F 82% 30.18 in 10.0 mi NW 11.5 mph - N/A   Clear
4:53 AM 28.0 °F - 24.1 °F 85% 30.19 in 10.0 mi Calm Calm - N/A   Clear
5:53 AM 27.0 °F 20.5 °F 23.0 °F 85% 30.21 in 10.0 mi SSW 5.8 mph - N/A   Clear
6:53 AM 26.1 °F 19.4 °F 23.0 °F 88% 30.22 in 10.0 mi NW 5.8 mph - N/A   Clear
7:53 AM 28.0 °F 19.3 °F 24.1 °F 85% 30.24 in 10.0 mi NW 9.2 mph - N/A   Clear
8:53 AM 32.0 °F 26.4 °F 26.1 °F 79% 30.24 in 10.0 mi NW 5.8 mph - N/A   Clear
9:53 AM 34.0 °F 27.2 °F 26.1 °F 73% 30.24 in 10.0 mi NW 8.1 mph - N/A   Clear
10:53 AM 37.0 °F 28.9 °F 27.0 °F 67% 30.23 in 10.0 mi NW 12.7 mph - N/A   Clear
11:53 AM 37.9 °F 28.2 °F 26.1 °F 62% 30.21 in 10.0 mi NW 18.4 mph 23.0 mph N/A   Clear
12:53 PM 39.0 °F 30.3 °F 26.1 °F 60% 30.19 in 10.0 mi NW 16.1 mph - N/A   Clear
1:53 PM 39.9 °F 30.2 °F 25.0 °F 55% 30.19 in 10.0 mi NW 20.7 mph 27.6 mph N/A   Clear
2:53 PM 39.9 °F 30.5 °F 25.0 °F 55% 30.19 in 10.0 mi NW 19.6 mph - N/A   Clear
3:53 PM 37.9 °F 29.6 °F 25.0 °F 60% 30.18 in 10.0 mi NW 13.8 mph - N/A   Clear
4:53 PM 35.1 °F 25.9 °F 24.1 °F 64% 30.19 in 10.0 mi NW 13.8 mph - N/A   Clear
5:53 PM 32.0 °F 23.6 °F 24.1 °F 73% 30.21 in 10.0 mi NNW 10.4 mph - N/A   Clear
6:53 PM 30.0 °F 22.4 °F 23.0 °F 75% 30.23 in 10.0 mi NW 8.1 mph - N/A   Clear
7:53 PM 30.9 °F 22.8 °F 23.0 °F 72% 30.23 in 10.0 mi NW 9.2 mph - N/A   Clear
8:53 PM 28.0 °F 22.8 °F 21.9 °F 78% 30.24 in 10.0 mi South 4.6 mph - N/A   Clear
9:53 PM 26.1 °F 20.5 °F 21.0 °F 81% 30.24 in 10.0 mi SSW 4.6 mph - N/A   Clear
10:53 PM 24.1 °F 18.2 °F 19.9 °F 84% 30.24 in 10.0 mi South 4.6 mph - N/A   Clear
11:53 PM 23.0 °F 18.4 °F 19.4 °F 86% 30.17 in 10.0 mi SE 3.5 mph - N/A   Clear